Time,TemperatureF,DewpointF,PressureIn,WindDirection,WindDirectionDegrees,WindSpeedMPH,WindSpeedGustMPH,Humidity,HourlyPrecipIn,Conditions,Clouds,dailyrainin,SolarRadiationWatts/m^2,SoftwareType,DateUTC
2013-01-13 00:00:00,32.1,31.6,29.64,South,175,0.0,0.0,98,0.00,,,0.00,0,WeatherCatV1.11B39,2013-01-13 05:00:00,
2013-01-13 00:01:00,32.1,31.6,29.64,South,175,0.0,0.0,98,0.00,,,0.00,0,WeatherCatV1.11B39,2013-01-13 05:01:00,
2013-01-13 00:06:00,32.1,31.6,29.63,South,175,0.0,0.0,98,0.00,,,0.00,0,WeatherCatV1.11B39,2013-01-13 05:06:00,
2013-01-13 00:11:00,32.1,31.6,29.62,South,175,0.0,0.0,98,0.00,,,0.00,0,WeatherCatV1.11B39,2013-01-13 05:11:00,
2013-01-13 00:16:00,32.1,31.6,29.62,South,175,0.0,0.0,98,0.00,,,0.00,0,WeatherCatV1.11B39,2013-01-13 05:16:00,
2013-01-13 00:21:00,32.0,31.2,29.63,South,175,0.0,0.0,97,0.00,,,0.00,0,WeatherCatV1.11B39,2013-01-13 05:21:00,
2013-01-13 00:27:00,32.0,31.2,29.63,South,175,0.0,0.0,97,0.00,,,0.00,0,WeatherCatV1.11B39,2013-01-13 05:27:00,
2013-01-13 00:32:00,32.0,31.2,29.63,South,175,0.0,0.0,97,0.00,,,0.00,0,WeatherCatV1.11B39,2013-01-13 05:32:00,
2013-01-13 00:37:00,32.0,31.2,29.63,South,175,0.0,0.0,97,0.00,,,0.00,0,WeatherCatV1.11B39,2013-01-13 05:37:00,
2013-01-13 00:42:00,31.9,31.1,29.63,South,175,0.0,0.0,97,0.00,,,0.00,0,WeatherCatV1.11B39,2013-01-13 05:42:00,
2013-01-13 00:47:00,31.9,31.1,29.63,South,175,0.0,0.0,97,0.00,,,0.00,0,WeatherCatV1.11B39,2013-01-13 05:47:00,
2013-01-13 00:52:00,31.9,31.4,29.63,South,175,0.0,0.0,98,0.00,,,0.00,0,WeatherCatV1.11B39,2013-01-13 05:52:00,
2013-01-13 00:57:00,32.0,31.5,29.63,South,175,0.0,0.0,98,0.00,,,0.00,0,WeatherCatV1.11B39,2013-01-13 05:57:00,
2013-01-13 01:02:00,31.9,31.4,29.64,South,175,0.0,0.0,98,0.00,,,0.00,0,WeatherCatV1.11B39,2013-01-13 06:02:00,
2013-01-13 01:07:00,31.9,31.4,29.64,South,175,0.0,0.0,98,0.00,,,0.00,0,WeatherCatV1.11B39,2013-01-13 06:07:00,
2013-01-13 01:12:00,32.0,31.5,29.64,South,175,0.0,0.0,98,0.00,,,0.00,0,WeatherCatV1.11B39,2013-01-13 06:12:00,
2013-01-13 01:17:00,32.0,31.5,29.64,South,175,0.0,0.0,98,0.00,,,0.00,0,WeatherCatV1.11B39,2013-01-13 06:17:00,
2013-01-13 01:22:00,32.0,31.5,29.64,South,175,0.0,0.0,98,0.00,,,0.00,0,WeatherCatV1.11B39,2013-01-13 06:22:00,
2013-01-13 01:27:00,32.0,31.5,29.64,South,175,0.0,0.0,98,0.00,,,0.00,0,WeatherCatV1.11B39,2013-01-13 06:27:00,
2013-01-13 01:32:00,32.0,31.5,29.63,South,175,0.0,0.0,98,0.00,,,0.00,0,WeatherCatV1.11B39,2013-01-13 06:32:00,
2013-01-13 01:37:00,32.0,31.5,29.63,South,175,0.0,0.0,98,0.00,,,0.00,0,WeatherCatV1.11B39,2013-01-13 06:37:00,
2013-01-13 01:42:00,32.0,31.5,29.63,South,175,0.0,0.0,98,0.00,,,0.00,0,WeatherCatV1.11B39,2013-01-13 06:42:00,
2013-01-13 01:47:00,32.0,31.5,29.64,South,175,0.0,0.0,98,0.00,,,0.00,0,WeatherCatV1.11B39,2013-01-13 06:47:00,
2013-01-13 01:52:00,31.9,31.4,29.64,South,175,0.0,0.0,98,0.00,,,0.00,0,WeatherCatV1.11B39,2013-01-13 06:52:00,
2013-01-13 01:57:00,31.9,31.4,29.64,South,175,0.0,0.0,98,0.00,,,0.00,0,WeatherCatV1.11B39,2013-01-13 06:57:00,
2013-01-13 02:02:00,31.9,31.4,29.65,South,175,0.0,0.0,98,0.00,,,0.00,0,WeatherCatV1.11B39,2013-01-13 07:02:00,
2013-01-13 02:07:00,31.9,31.4,29.65,South,175,0.0,0.0,98,0.00,,,0.00,0,WeatherCatV1.11B39,2013-01-13 07:07:00,
2013-01-13 02:12:00,32.0,31.5,29.65,South,175,0.0,0.0,98,0.00,,,0.00,0,WeatherCatV1.11B39,2013-01-13 07:12:00,
2013-01-13 02:17:00,31.9,31.4,29.65,South,175,0.0,0.0,98,0.00,,,0.00,0,WeatherCatV1.11B39,2013-01-13 07:17:00,
2013-01-13 02:22:00,31.9,31.4,29.65,South,175,0.0,0.0,98,0.00,,,0.00,0,WeatherCatV1.11B39,2013-01-13 07:22:00,
2013-01-13 02:27:00,31.9,31.4,29.65,South,175,0.0,0.0,98,0.00,,,0.00,0,WeatherCatV1.11B39,2013-01-13 07:27:00,
2013-01-13 02:32:00,32.0,31.5,29.65,South,175,0.0,0.0,98,0.00,,,0.00,0,WeatherCatV1.11B39,2013-01-13 07:32:00,
2013-01-13 02:37:00,32.0,31.5,29.65,South,175,0.0,0.0,98,0.00,,,0.00,0,WeatherCatV1.11B39,2013-01-13 07:37:00,
2013-01-13 02:42:00,32.0,31.5,29.65,South,175,0.0,0.0,98,0.00,,,0.00,0,WeatherCatV1.11B39,2013-01-13 07:42:00,
2013-01-13 02:47:00,32.0,31.5,29.65,South,175,0.0,0.0,98,0.00,,,0.00,0,WeatherCatV1.11B39,2013-01-13 07:47:00,
2013-01-13 02:52:00,32.1,31.6,29.65,South,175,0.0,0.0,98,0.00,,,0.00,0,WeatherCatV1.11B39,2013-01-13 07:52:00,
2013-01-13 02:57:00,32.1,31.6,29.65,South,175,0.0,0.0,98,0.00,,,0.00,0,WeatherCatV1.11B39,2013-01-13 07:57:00,
2013-01-13 03:02:00,32.1,31.6,29.65,South,175,0.0,0.0,98,0.00,,,0.00,0,WeatherCatV1.11B39,2013-01-13 08:02:00,
2013-01-13 03:07:00,32.1,31.6,29.65,South,175,0.0,0.0,98,0.00,,,0.00,0,WeatherCatV1.11B39,2013-01-13 08:07:00,
2013-01-13 03:12:00,32.1,31.6,29.65,South,175,0.0,0.0,98,0.00,,,0.00,0,WeatherCatV1.11B39,2013-01-13 08:12:00,
2013-01-13 03:17:00,32.1,31.6,29.65,South,175,0.0,0.0,98,0.00,,,0.00,0,WeatherCatV1.11B39,2013-01-13 08:17:00,
2013-01-13 03:22:00,32.1,31.6,29.65,South,175,0.0,0.0,98,0.00,,,0.00,0,WeatherCatV1.11B39,2013-01-13 08:22:00,
2013-01-13 03:27:00,32.2,31.7,29.65,South,175,0.0,0.0,98,0.00,,,0.00,0,WeatherCatV1.11B39,2013-01-13 08:27:00,
2013-01-13 03:32:00,32.2,31.7,29.65,South,175,0.0,0.0,98,0.00,,,0.00,0,WeatherCatV1.11B39,2013-01-13 08:32:00,
2013-01-13 03:37:00,32.2,31.7,29.65,South,175,0.0,0.0,98,0.00,,,0.00,0,WeatherCatV1.11B39,2013-01-13 08:37:00,
2013-01-13 03:42:00,32.2,31.7,29.65,South,175,0.0,0.0,98,0.00,,,0.00,0,WeatherCatV1.11B39,2013-01-13 08:42:00,
2013-01-13 03:47:00,32.3,31.8,29.65,South,175,0.0,0.0,98,0.00,,,0.00,0,WeatherCatV1.11B39,2013-01-13 08:47:00,
2013-01-13 03:52:00,32.3,31.8,29.64,South,175,0.0,0.0,98,0.00,,,0.00,0,WeatherCatV1.11B39,2013-01-13 08:52:00,
2013-01-13 03:57:00,32.3,31.8,29.65,South,175,0.0,0.0,98,0.00,,,0.00,0,WeatherCatV1.11B39,2013-01-13 08:57:00,
2013-01-13 04:02:00,32.3,31.8,29.64,South,175,0.0,0.0,98,0.00,,,0.00,0,WeatherCatV1.11B39,2013-01-13 09:02:00,
2013-01-13 04:07:00,32.3,31.8,29.65,South,175,0.0,0.0,98,0.00,,,0.00,0,WeatherCatV1.11B39,2013-01-13 09:07:00,
2013-01-13 04:12:00,32.2,31.7,29.64,South,175,0.0,0.0,98,0.00,,,0.00,0,WeatherCatV1.11B39,2013-01-13 09:12:00,
2013-01-13 04:17:00,32.2,31.7,29.64,South,175,0.0,0.0,98,0.00,,,0.00,0,WeatherCatV1.11B39,2013-01-13 09:17:00,
2013-01-13 04:22:00,32.2,31.7,29.64,South,175,0.0,0.0,98,0.00,,,0.00,0,WeatherCatV1.11B39,2013-01-13 09:22:00,
2013-01-13 04:27:00,32.1,31.6,29.65,South,175,0.0,0.0,98,0.00,,,0.00,0,WeatherCatV1.11B39,2013-01-13 09:27:00,
2013-01-13 04:32:00,32.1,31.6,29.64,South,175,0.0,0.0,98,0.00,,,0.00,0,WeatherCatV1.11B39,2013-01-13 09:32:00,
2013-01-13 04:37:00,32.1,31.6,29.63,South,175,0.0,0.0,98,0.00,,,0.00,0,WeatherCatV1.11B39,2013-01-13 09:37:00,
2013-01-13 04:42:00,32.1,31.6,29.65,South,175,0.0,0.0,98,0.00,,,0.00,0,WeatherCatV1.11B39,2013-01-13 09:42:00,
2013-01-13 04:47:00,32.1,31.6,29.65,South,175,0.0,0.0,98,0.00,,,0.00,0,WeatherCatV1.11B39,2013-01-13 09:47:00,
2013-01-13 04:52:00,32.1,31.6,29.64,South,175,0.0,0.0,98,0.00,,,0.00,0,WeatherCatV1.11B39,2013-01-13 09:52:00,
2013-01-13 04:57:00,32.2,31.7,29.64,South,175,0.0,0.0,98,0.00,,,0.00,0,WeatherCatV1.11B39,2013-01-13 09:57:00,
2013-01-13 05:02:00,32.2,31.7,29.64,South,175,0.0,0.0,98,0.00,,,0.00,0,WeatherCatV1.11B39,2013-01-13 10:02:00,
2013-01-13 05:07:00,32.2,31.7,29.64,South,175,0.0,0.0,98,0.00,,,0.00,0,WeatherCatV1.11B39,2013-01-13 10:07:00,
2013-01-13 05:12:00,32.2,31.7,29.64,South,175,0.0,0.0,98,0.00,,,0.00,0,WeatherCatV1.11B39,2013-01-13 10:12:00,
2013-01-13 05:17:00,32.2,31.7,29.64,South,175,0.0,0.0,98,0.00,,,0.00,0,WeatherCatV1.11B39,2013-01-13 10:17:00,
2013-01-13 05:22:00,32.2,31.7,29.63,South,175,0.0,1.0,98,0.00,,,0.00,0,WeatherCatV1.11B39,2013-01-13 10:22:00,
2013-01-13 05:27:00,32.1,31.6,29.64,South,175,0.0,0.0,98,0.00,,,0.00,0,WeatherCatV1.11B39,2013-01-13 10:27:00,
2013-01-13 05:32:00,32.1,31.6,29.64,South,175,0.0,0.0,98,0.00,,,0.00,0,WeatherCatV1.11B39,2013-01-13 10:32:00,
2013-01-13 05:37:00,32.1,31.6,29.64,South,175,0.0,0.0,98,0.00,,,0.00,0,WeatherCatV1.11B39,2013-01-13 10:37:00,
2013-01-13 05:42:00,32.1,31.6,29.64,South,175,0.0,0.0,98,0.00,,,0.00,0,WeatherCatV1.11B39,2013-01-13 10:42:00,
2013-01-13 05:47:00,32.1,31.6,29.64,South,175,0.0,0.0,98,0.00,,,0.00,0,WeatherCatV1.11B39,2013-01-13 10:47:00,
2013-01-13 05:52:00,32.1,31.6,29.63,South,175,0.0,0.0,98,0.00,,,0.00,0,WeatherCatV1.11B39,2013-01-13 10:52:00,
2013-01-13 05:57:00,32.1,31.6,29.64,South,175,0.0,0.0,98,0.00,,,0.00,0,WeatherCatV1.11B39,2013-01-13 10:57:00,
2013-01-13 06:02:00,32.1,31.6,29.65,South,175,0.0,0.0,98,0.00,,,0.00,0,WeatherCatV1.11B39,2013-01-13 11:02:00,
2013-01-13 06:07:00,32.1,31.6,29.65,South,175,0.0,0.0,98,0.00,,,0.00,0,WeatherCatV1.11B39,2013-01-13 11:07:00,
2013-01-13 06:12:00,32.1,31.6,29.65,South,175,0.0,0.0,98,0.00,,,0.00,0,WeatherCatV1.11B39,2013-01-13 11:12:00,
2013-01-13 06:17:00,32.1,31.6,29.66,South,175,0.0,1.0,98,0.00,,,0.00,0,WeatherCatV1.11B39,2013-01-13 11:17:00,
2013-01-13 06:22:00,32.1,31.6,29.66,South,173,0.0,1.0,98,0.00,,,0.00,0,WeatherCatV1.11B39,2013-01-13 11:22:00,
2013-01-13 06:27:00,32.2,31.7,29.67,South,173,0.0,0.0,98,0.00,,,0.00,0,WeatherCatV1.11B39,2013-01-13 11:27:00,
2013-01-13 06:32:00,32.2,31.7,29.66,South,173,0.0,0.0,98,0.00,,,0.00,0,WeatherCatV1.11B39,2013-01-13 11:32:00,
2013-01-13 06:37:00,32.2,31.7,29.65,South,173,0.0,0.0,98,0.00,,,0.00,0,WeatherCatV1.11B39,2013-01-13 11:37:00,
2013-01-13 06:42:00,32.2,31.7,29.65,South,173,0.0,0.0,98,0.00,,,0.00,0,WeatherCatV1.11B39,2013-01-13 11:42:00,
2013-01-13 06:47:00,32.2,31.7,29.65,South,173,0.0,0.0,98,0.00,,,0.00,0,WeatherCatV1.11B39,2013-01-13 11:47:00,
2013-01-13 06:52:00,32.2,31.7,29.65,South,173,0.0,0.0,98,0.00,,,0.00,0,WeatherCatV1.11B39,2013-01-13 11:52:00,
2013-01-13 06:57:00,32.2,31.7,29.65,South,173,0.0,0.0,98,0.00,,,0.00,0,WeatherCatV1.11B39,2013-01-13 11:57:00,
2013-01-13 07:02:00,32.1,31.6,29.65,South,173,0.0,0.0,98,0.00,,,0.00,0,WeatherCatV1.11B39,2013-01-13 12:02:00,
2013-01-13 07:07:00,32.1,31.6,29.65,South,173,0.0,0.0,98,0.00,,,0.00,0,WeatherCatV1.11B39,2013-01-13 12:07:00,
2013-01-13 07:12:00,32.1,31.6,29.65,South,173,0.0,0.0,98,0.00,,,0.00,0,WeatherCatV1.11B39,2013-01-13 12:12:00,
2013-01-13 07:17:00,32.1,31.6,29.66,South,173,0.0,1.0,98,0.00,,,0.00,0,WeatherCatV1.11B39,2013-01-13 12:17:00,
2013-01-13 07:22:00,32.1,31.6,29.65,South,173,0.0,0.0,98,0.00,,,0.00,0,WeatherCatV1.11B39,2013-01-13 12:22:00,
2013-01-13 07:27:00,32.0,31.5,29.65,South,173,0.0,0.0,98,0.00,,,0.00,0,WeatherCatV1.11B39,2013-01-13 12:27:00,
2013-01-13 07:32:00,32.0,31.5,29.65,South,173,0.0,0.0,98,0.00,,,0.00,0,WeatherCatV1.11B39,2013-01-13 12:32:00,
2013-01-13 07:37:00,32.0,31.5,29.65,South,173,0.0,0.0,98,0.00,,,0.00,0,WeatherCatV1.11B39,2013-01-13 12:37:00,
2013-01-13 07:42:00,32.0,31.5,29.65,South,173,0.0,0.0,98,0.00,,,0.00,5,WeatherCatV1.11B39,2013-01-13 12:42:00,
2013-01-13 07:47:00,32.0,31.5,29.64,South,173,0.0,0.0,98,0.00,,,0.00,5,WeatherCatV1.11B39,2013-01-13 12:47:00,
2013-01-13 07:52:00,31.9,31.4,29.65,South,173,0.0,0.0,98,0.00,,,0.00,5,WeatherCatV1.11B39,2013-01-13 12:52:00,
2013-01-13 07:57:00,31.9,31.4,29.65,South,173,0.0,0.0,98,0.00,,,0.00,9,WeatherCatV1.11B39,2013-01-13 12:57:00,
2013-01-13 08:02:00,31.9,31.4,29.65,South,173,0.0,0.0,98,0.00,,,0.01,19,WeatherCatV1.11B39,2013-01-13 13:02:00,
2013-01-13 08:07:00,31.9,31.4,29.64,South,173,0.0,1.0,98,0.00,,,0.01,21,WeatherCatV1.11B39,2013-01-13 13:07:00,
2013-01-13 08:12:00,31.9,31.4,29.65,South,173,0.0,0.0,98,0.00,,,0.01,21,WeatherCatV1.11B39,2013-01-13 13:12:00,
2013-01-13 08:17:00,31.9,31.4,29.65,South,173,0.0,0.0,98,0.00,,,0.01,26,WeatherCatV1.11B39,2013-01-13 13:17:00,
2013-01-13 08:22:00,32.0,31.5,29.65,South,173,0.0,0.0,98,0.00,,,0.01,28,WeatherCatV1.11B39,2013-01-13 13:22:00,
2013-01-13 08:27:00,32.0,31.5,29.65,South,173,0.0,0.0,98,0.00,,,0.01,21,WeatherCatV1.11B39,2013-01-13 13:27:00,
2013-01-13 08:32:00,32.0,31.5,29.65,South,173,0.0,0.0,98,0.00,,,0.01,18,WeatherCatV1.11B39,2013-01-13 13:32:00,
2013-01-13 08:37:00,32.0,31.5,29.65,South,173,0.0,0.0,98,0.00,,,0.01,35,WeatherCatV1.11B39,2013-01-13 13:37:00,
2013-01-13 08:42:00,32.0,31.5,29.65,South,173,0.0,0.0,98,0.00,,,0.01,44,WeatherCatV1.11B39,2013-01-13 13:42:00,
2013-01-13 08:47:00,32.1,31.6,29.65,South,173,0.0,0.0,98,0.00,,,0.01,53,WeatherCatV1.11B39,2013-01-13 13:47:00,
2013-01-13 08:52:00,32.2,31.7,29.65,South,173,0.0,0.0,98,0.00,,,0.01,54,WeatherCatV1.11B39,2013-01-13 13:52:00,
2013-01-13 08:57:00,32.3,31.8,29.66,South,173,0.0,0.0,98,0.00,,,0.01,46,WeatherCatV1.11B39,2013-01-13 13:57:00,
2013-01-13 09:02:00,32.4,31.9,29.65,South,173,0.0,0.0,98,0.00,,,0.01,26,WeatherCatV1.11B39,2013-01-13 14:02:00,
2013-01-13 09:07:00,32.3,31.8,29.65,South,173,0.0,0.0,98,0.00,,,0.01,25,WeatherCatV1.11B39,2013-01-13 14:07:00,
2013-01-13 09:12:00,32.4,31.9,29.65,South,173,0.0,1.0,98,0.00,,,0.01,23,WeatherCatV1.11B39,2013-01-13 14:12:00,
2013-01-13 09:17:00,32.4,31.9,29.65,South,173,0.0,0.0,98,0.00,,,0.01,23,WeatherCatV1.11B39,2013-01-13 14:17:00,
2013-01-13 09:22:00,32.3,31.8,29.65,South,173,0.0,0.0,98,0.00,,,0.01,76,WeatherCatV1.11B39,2013-01-13 14:22:00,
2013-01-13 09:27:00,32.3,31.8,29.66,South,173,0.0,0.0,98,0.00,,,0.01,44,WeatherCatV1.11B39,2013-01-13 14:27:00,
2013-01-13 09:32:00,32.4,31.9,29.66,South,173,0.0,0.0,98,0.00,,,0.01,39,WeatherCatV1.11B39,2013-01-13 14:32:00,
2013-01-13 09:37:00,32.4,31.9,29.66,South,173,0.0,0.0,98,0.00,,,0.01,40,WeatherCatV1.11B39,2013-01-13 14:37:00,
2013-01-13 09:42:00,32.5,32.0,29.67,South,173,0.0,0.0,98,0.00,,,0.01,40,WeatherCatV1.11B39,2013-01-13 14:42:00,
2013-01-13 09:47:00,32.5,32.0,29.66,South,173,0.0,0.0,98,0.00,,,0.01,44,WeatherCatV1.11B39,2013-01-13 14:47:00,
2013-01-13 09:52:00,32.6,32.1,29.67,South,173,0.0,0.0,98,0.00,,,0.01,44,WeatherCatV1.11B39,2013-01-13 14:52:00,
2013-01-13 09:57:00,32.7,32.2,29.67,South,173,0.0,0.0,98,0.00,,,0.01,42,WeatherCatV1.11B39,2013-01-13 14:57:00,
2013-01-13 10:02:00,32.8,32.3,29.67,South,173,0.0,0.0,98,0.00,,,0.01,35,WeatherCatV1.11B39,2013-01-13 15:02:00,
2013-01-13 10:07:00,32.9,32.4,29.67,South,173,0.0,0.0,98,0.00,,,0.01,37,WeatherCatV1.11B39,2013-01-13 15:07:00,
2013-01-13 10:12:00,33.0,32.5,29.66,South,173,0.0,0.0,98,0.00,,,0.01,40,WeatherCatV1.11B39,2013-01-13 15:12:00,
2013-01-13 10:17:00,33.0,32.5,29.66,South,173,0.0,0.0,98,0.00,,,0.01,39,WeatherCatV1.11B39,2013-01-13 15:17:00,
2013-01-13 10:22:00,33.0,32.5,29.65,South,173,0.0,0.0,98,0.00,,,0.01,26,WeatherCatV1.11B39,2013-01-13 15:22:00,
2013-01-13 10:27:00,33.1,32.6,29.66,South,173,0.0,0.0,98,0.00,,,0.01,25,WeatherCatV1.11B39,2013-01-13 15:27:00,
2013-01-13 10:32:00,33.2,32.7,29.66,South,173,0.0,0.0,98,0.00,,,0.01,56,WeatherCatV1.11B39,2013-01-13 15:32:00,
2013-01-13 10:37:00,33.3,32.8,29.66,South,173,0.0,0.0,98,0.00,,,0.01,77,WeatherCatV1.11B39,2013-01-13 15:37:00,
2013-01-13 10:42:00,33.4,32.9,29.66,South,173,0.0,0.0,98,0.00,,,0.01,54,WeatherCatV1.11B39,2013-01-13 15:42:00,
2013-01-13 10:47:00,33.5,33.0,29.65,South,173,0.0,0.0,98,0.00,,,0.01,30,WeatherCatV1.11B39,2013-01-13 15:47:00,
2013-01-13 10:52:00,33.5,33.0,29.65,South,173,0.0,0.0,98,0.00,,,0.01,35,WeatherCatV1.11B39,2013-01-13 15:52:00,
2013-01-13 10:57:00,33.5,33.0,29.65,South,173,0.0,0.0,98,0.00,,,0.01,72,WeatherCatV1.11B39,2013-01-13 15:57:00,
2013-01-13 11:02:00,33.5,33.0,29.64,South,173,0.0,0.0,98,0.00,,,0.01,69,WeatherCatV1.11B39,2013-01-13 16:02:00,
2013-01-13 11:07:00,33.5,33.0,29.64,South,173,0.0,0.0,98,0.00,,,0.01,40,WeatherCatV1.11B39,2013-01-13 16:07:00,
2013-01-13 11:10:00,33.4,32.9,29.64,South,173,0.0,0.0,98,0.00,,,0.01,39,WeatherCatV1.11B39,2013-01-13 16:10:00,
2013-01-13 11:15:00,33.4,32.9,29.64,South,173,0.0,0.0,98,0.00,,,0.01,88,WeatherCatV1.11B39,2013-01-13 16:15:00,
2013-01-13 11:20:00,33.4,32.9,29.64,South,173,0.0,0.0,98,0.00,,,0.01,88,WeatherCatV1.11B39,2013-01-13 16:20:00,
2013-01-13 11:25:00,33.6,33.1,29.64,South,173,0.0,0.0,98,0.00,,,0.01,104,WeatherCatV1.11B39,2013-01-13 16:25:00,
2013-01-13 11:30:00,33.8,33.3,29.63,South,173,0.0,0.0,98,0.00,,,0.01,95,WeatherCatV1.11B39,2013-01-13 16:30:00,
2013-01-13 11:35:00,34.0,33.5,29.63,South,174,1.0,1.0,98,0.00,,,0.01,97,WeatherCatV1.11B39,2013-01-13 16:35:00,
2013-01-13 11:40:00,34.2,33.7,29.64,South,174,0.0,0.0,98,0.00,,,0.01,97,WeatherCatV1.11B39,2013-01-13 16:40:00,
2013-01-13 11:45:00,34.4,33.9,29.63,South,174,0.0,0.0,98,0.00,,,0.01,67,WeatherCatV1.11B39,2013-01-13 16:45:00,
2013-01-13 11:50:00,34.4,33.9,29.62,South,174,0.0,0.0,98,0.00,,,0.01,86,WeatherCatV1.11B39,2013-01-13 16:50:00,
2013-01-13 11:55:00,34.4,33.9,29.62,South,174,0.0,0.0,98,0.00,,,0.01,63,WeatherCatV1.11B39,2013-01-13 16:55:00,
2013-01-13 12:00:00,34.5,34.0,29.61,South,174,0.0,0.0,98,0.00,,,0.01,60,WeatherCatV1.11B39,2013-01-13 17:00:00,
2013-01-13 12:05:00,34.6,34.1,29.61,South,174,0.0,0.0,98,0.00,,,0.01,88,WeatherCatV1.11B39,2013-01-13 17:05:00,
2013-01-13 12:10:00,34.8,34.3,29.60,South,174,0.0,0.0,98,0.00,,,0.01,72,WeatherCatV1.11B39,2013-01-13 17:10:00,
2013-01-13 12:15:00,34.9,34.4,29.60,South,174,0.0,0.0,98,0.00,,,0.01,70,WeatherCatV1.11B39,2013-01-13 17:15:00,
2013-01-13 12:20:00,34.9,34.4,29.61,South,174,0.0,1.0,98,0.00,,,0.01,49,WeatherCatV1.11B39,2013-01-13 17:20:00,
2013-01-13 12:25:00,34.8,34.3,29.61,South,174,0.0,0.0,98,0.00,,,0.01,56,WeatherCatV1.11B39,2013-01-13 17:25:00,
2013-01-13 12:30:00,34.6,34.1,29.61,South,174,0.0,0.0,98,0.00,,,0.01,54,WeatherCatV1.11B39,2013-01-13 17:30:00,
2013-01-13 12:35:00,34.4,33.9,29.60,South,174,0.0,0.0,98,0.00,,,0.01,62,WeatherCatV1.11B39,2013-01-13 17:35:00,
2013-01-13 12:40:00,34.5,34.0,29.59,South,174,0.0,0.0,98,0.00,,,0.01,46,WeatherCatV1.11B39,2013-01-13 17:40:00,
2013-01-13 12:45:00,34.5,34.0,29.59,South,174,1.0,1.0,98,0.00,,,0.01,35,WeatherCatV1.11B39,2013-01-13 17:45:00,
2013-01-13 12:50:00,34.5,34.0,29.59,South,174,0.0,0.0,98,0.00,,,0.01,42,WeatherCatV1.11B39,2013-01-13 17:50:00,
2013-01-13 12:55:00,34.5,34.0,29.59,South,174,0.0,0.0,98,0.00,,,0.01,40,WeatherCatV1.11B39,2013-01-13 17:55:00,
2013-01-13 13:00:00,34.5,34.0,29.59,South,174,0.0,0.0,98,0.00,,,0.01,44,WeatherCatV1.11B39,2013-01-13 18:00:00,
2013-01-13 13:05:00,34.5,34.0,29.58,South,174,0.0,0.0,98,0.00,,,0.01,37,WeatherCatV1.11B39,2013-01-13 18:05:00,
2013-01-13 13:10:00,34.5,34.0,29.59,South,174,0.0,0.0,98,0.00,,,0.01,46,WeatherCatV1.11B39,2013-01-13 18:10:00,
2013-01-13 13:15:00,34.5,34.0,29.59,South,174,0.0,0.0,98,0.00,,,0.01,65,WeatherCatV1.11B39,2013-01-13 18:15:00,
2013-01-13 13:20:00,34.6,34.1,29.59,South,174,0.0,0.0,98,0.00,,,0.01,72,WeatherCatV1.11B39,2013-01-13 18:20:00,
2013-01-13 13:25:00,34.7,34.2,29.58,South,174,0.0,0.0,98,0.00,,,0.01,62,WeatherCatV1.11B39,2013-01-13 18:25:00,
2013-01-13 13:30:00,34.7,34.2,29.57,South,174,0.0,0.0,98,0.00,,,0.01,58,WeatherCatV1.11B39,2013-01-13 18:30:00,
2013-01-13 13:35:00,34.8,34.3,29.57,South,174,0.0,0.0,98,0.00,,,0.01,49,WeatherCatV1.11B39,2013-01-13 18:35:00,
2013-01-13 13:40:00,34.8,34.3,29.57,South,174,0.0,0.0,98,0.00,,,0.01,44,WeatherCatV1.11B39,2013-01-13 18:40:00,
2013-01-13 13:45:00,34.8,34.3,29.58,South,174,0.0,0.0,98,0.00,,,0.01,49,WeatherCatV1.11B39,2013-01-13 18:45:00,
2013-01-13 13:50:00,34.9,34.4,29.57,South,174,0.0,0.0,98,0.00,,,0.01,46,WeatherCatV1.11B39,2013-01-13 18:50:00,
2013-01-13 13:55:00,34.9,34.4,29.57,South,174,0.0,0.0,98,0.00,,,0.01,26,WeatherCatV1.11B39,2013-01-13 18:55:00,
2013-01-13 14:00:00,34.8,34.3,29.58,South,174,0.0,0.0,98,0.00,,,0.01,56,WeatherCatV1.11B39,2013-01-13 19:00:00,
2013-01-13 14:05:00,34.9,34.4,29.58,South,174,0.0,0.0,98,0.00,,,0.01,35,WeatherCatV1.11B39,2013-01-13 19:05:00,
2013-01-13 14:10:00,34.9,34.4,29.57,South,174,0.0,0.0,98,0.00,,,0.01,35,WeatherCatV1.11B39,2013-01-13 19:10:00,
2013-01-13 14:15:00,34.9,34.4,29.57,South,174,0.0,0.0,98,0.00,,,0.01,19,WeatherCatV1.11B39,2013-01-13 19:15:00,
2013-01-13 14:20:00,34.9,34.4,29.57,South,174,0.0,0.0,98,0.00,,,0.01,12,WeatherCatV1.11B39,2013-01-13 19:20:00,
2013-01-13 14:25:00,34.9,34.4,29.57,South,174,0.0,0.0,98,0.00,,,0.01,14,WeatherCatV1.11B39,2013-01-13 19:25:00,
2013-01-13 14:30:00,34.9,34.4,29.57,South,174,0.0,0.0,98,0.00,,,0.01,16,WeatherCatV1.11B39,2013-01-13 19:30:00,
2013-01-13 14:35:00,35.0,34.5,29.57,South,174,0.0,0.0,98,0.00,,,0.01,18,WeatherCatV1.11B39,2013-01-13 19:35:00,
2013-01-13 14:40:00,34.9,34.4,29.57,South,174,0.0,0.0,98,0.00,,,0.01,16,WeatherCatV1.11B39,2013-01-13 19:40:00,
2013-01-13 14:45:00,34.8,34.3,29.56,South,174,0.0,0.0,98,0.00,,,0.01,18,WeatherCatV1.11B39,2013-01-13 19:45:00,
2013-01-13 14:50:00,34.7,34.2,29.56,South,174,0.0,0.0,98,0.00,,,0.01,19,WeatherCatV1.11B39,2013-01-13 19:50:00,
2013-01-13 14:55:00,34.6,34.1,29.56,South,174,0.0,0.0,98,0.00,,,0.01,23,WeatherCatV1.11B39,2013-01-13 19:55:00,
2013-01-13 15:00:00,34.5,34.0,29.56,South,174,0.0,0.0,98,0.00,,,0.01,18,WeatherCatV1.11B39,2013-01-13 20:00:00,
2013-01-13 15:05:00,34.4,33.9,29.56,South,174,0.0,0.0,98,0.00,,,0.01,16,WeatherCatV1.11B39,2013-01-13 20:05:00,
2013-01-13 15:10:00,34.4,33.9,29.56,South,174,0.0,0.0,98,0.00,,,0.01,21,WeatherCatV1.11B39,2013-01-13 20:10:00,
2013-01-13 15:15:00,34.4,33.9,29.55,South,174,0.0,0.0,98,0.00,,,0.01,19,WeatherCatV1.11B39,2013-01-13 20:15:00,
2013-01-13 15:20:00,34.4,33.9,29.55,South,174,0.0,0.0,98,0.00,,,0.01,14,WeatherCatV1.11B39,2013-01-13 20:20:00,
2013-01-13 15:25:00,34.4,33.9,29.55,South,174,0.0,0.0,98,0.00,,,0.01,11,WeatherCatV1.11B39,2013-01-13 20:25:00,
2013-01-13 15:30:00,34.4,33.9,29.55,South,174,0.0,0.0,98,0.00,,,0.01,9,WeatherCatV1.11B39,2013-01-13 20:30:00,
2013-01-13 15:35:00,34.4,33.9,29.54,South,174,0.0,0.0,98,0.00,,,0.01,9,WeatherCatV1.11B39,2013-01-13 20:35:00,
2013-01-13 15:40:00,34.4,33.9,29.54,South,174,0.0,0.0,98,0.00,,,0.01,0,WeatherCatV1.11B39,2013-01-13 20:40:00,
2013-01-13 15:45:00,34.4,33.9,29.54,South,174,0.0,0.0,98,0.00,,,0.01,5,WeatherCatV1.11B39,2013-01-13 20:45:00,
2013-01-13 15:50:00,34.4,33.9,29.54,South,174,0.0,0.0,98,0.00,,,0.01,5,WeatherCatV1.11B39,2013-01-13 20:50:00,
2013-01-13 15:52:00,34.4,33.9,29.54,South,174,0.0,0.0,98,0.00,,,0.01,5,WeatherCatV1.11B39,2013-01-13 20:52:00,
2013-01-13 15:57:00,34.4,33.9,29.53,South,174,0.0,0.0,98,0.00,,,0.01,0,WeatherCatV1.11B39,2013-01-13 20:57:00,
2013-01-13 16:02:00,34.4,33.9,29.54,South,174,0.0,0.0,98,0.00,,,0.01,0,WeatherCatV1.11B39,2013-01-13 21:02:00,
2013-01-13 16:07:00,34.4,33.9,29.54,South,174,0.0,0.0,98,0.00,,,0.01,0,WeatherCatV1.11B39,2013-01-13 21:07:00,
2013-01-13 16:12:00,34.3,33.8,29.54,South,174,0.0,0.0,98,0.00,,,0.01,0,WeatherCatV1.11B39,2013-01-13 21:12:00,
2013-01-13 16:17:00,34.2,33.7,29.53,South,174,0.0,0.0,98,0.00,,,0.01,0,WeatherCatV1.11B39,2013-01-13 21:17:00,
2013-01-13 16:22:00,34.1,33.6,29.53,South,174,0.0,0.0,98,0.00,,,0.01,0,WeatherCatV1.11B39,2013-01-13 21:22:00,
2013-01-13 16:27:00,33.9,33.1,29.52,South,174,0.0,0.0,97,0.00,,,0.01,0,WeatherCatV1.11B39,2013-01-13 21:27:00,
2013-01-13 16:32:00,33.7,33.2,29.52,South,174,0.0,0.0,98,0.00,,,0.01,0,WeatherCatV1.11B39,2013-01-13 21:32:00,
2013-01-13 16:37:00,33.6,33.1,29.52,South,174,0.0,0.0,98,0.00,,,0.01,0,WeatherCatV1.11B39,2013-01-13 21:37:00,
2013-01-13 16:42:00,33.5,33.0,29.52,South,174,0.0,0.0,98,0.00,,,0.01,0,WeatherCatV1.11B39,2013-01-13 21:42:00,
2013-01-13 16:47:00,33.4,32.6,29.52,South,174,0.0,0.0,97,0.00,,,0.01,0,WeatherCatV1.11B39,2013-01-13 21:47:00,
2013-01-13 16:52:00,33.4,32.6,29.52,South,174,0.0,0.0,97,0.00,,,0.01,0,WeatherCatV1.11B39,2013-01-13 21:52:00,
2013-01-13 16:57:00,33.4,32.9,29.53,South,174,0.0,0.0,98,0.00,,,0.01,0,WeatherCatV1.11B39,2013-01-13 21:57:00,
2013-01-13 17:02:00,33.4,32.9,29.53,South,174,0.0,0.0,98,0.00,,,0.01,0,WeatherCatV1.11B39,2013-01-13 22:02:00,
2013-01-13 17:07:00,33.4,32.9,29.53,South,174,0.0,0.0,98,0.00,,,0.01,0,WeatherCatV1.11B39,2013-01-13 22:07:00,
2013-01-13 17:12:00,33.4,32.9,29.52,South,174,0.0,0.0,98,0.00,,,0.01,0,WeatherCatV1.11B39,2013-01-13 22:12:00,
2013-01-13 17:17:00,33.4,32.9,29.52,South,174,0.0,0.0,98,0.00,,,0.01,0,WeatherCatV1.11B39,2013-01-13 22:17:00,
2013-01-13 17:22:00,33.4,32.9,29.53,South,174,0.0,0.0,98,0.00,,,0.01,0,WeatherCatV1.11B39,2013-01-13 22:22:00,
2013-01-13 17:27:00,33.4,32.9,29.54,South,174,0.0,0.0,98,0.00,,,0.01,0,WeatherCatV1.11B39,2013-01-13 22:27:00,
2013-01-13 17:32:00,33.4,32.9,29.54,South,174,0.0,0.0,98,0.00,,,0.01,0,WeatherCatV1.11B39,2013-01-13 22:32:00,
2013-01-13 17:37:00,33.4,32.9,29.53,South,174,0.0,0.0,98,0.00,,,0.01,0,WeatherCatV1.11B39,2013-01-13 22:37:00,
2013-01-13 17:42:00,33.4,32.9,29.53,South,174,0.0,0.0,98,0.00,,,0.01,0,WeatherCatV1.11B39,2013-01-13 22:42:00,
2013-01-13 17:47:00,33.4,32.9,29.53,South,174,0.0,0.0,98,0.00,,,0.01,0,WeatherCatV1.11B39,2013-01-13 22:47:00,
2013-01-13 17:52:00,33.3,32.8,29.54,South,174,0.0,0.0,98,0.00,,,0.01,0,WeatherCatV1.11B39,2013-01-13 22:52:00,
2013-01-13 17:57:00,33.3,32.8,29.53,South,174,0.0,0.0,98,0.00,,,0.01,0,WeatherCatV1.11B39,2013-01-13 22:57:00,
2013-01-13 18:02:00,33.2,32.7,29.53,South,174,0.0,0.0,98,0.00,,,0.01,0,WeatherCatV1.11B39,2013-01-13 23:02:00,
2013-01-13 18:07:00,33.2,32.7,29.53,South,174,0.0,0.0,98,0.00,,,0.01,0,WeatherCatV1.11B39,2013-01-13 23:07:00,
2013-01-13 18:12:00,33.1,32.6,29.53,South,174,0.0,0.0,98,0.00,,,0.01,0,WeatherCatV1.11B39,2013-01-13 23:12:00,
2013-01-13 18:17:00,33.1,32.6,29.53,South,174,0.0,0.0,98,0.00,,,0.01,0,WeatherCatV1.11B39,2013-01-13 23:17:00,
2013-01-13 18:22:00,33.0,32.5,29.53,South,174,0.0,0.0,98,0.00,,,0.01,0,WeatherCatV1.11B39,2013-01-13 23:22:00,
2013-01-13 18:27:00,33.0,32.5,29.52,South,174,0.0,0.0,98,0.00,,,0.01,0,WeatherCatV1.11B39,2013-01-13 23:27:00,
2013-01-13 18:32:00,33.0,32.5,29.52,South,174,0.0,0.0,98,0.00,,,0.01,0,WeatherCatV1.11B39,2013-01-13 23:32:00,
2013-01-13 18:37:00,32.9,32.4,29.52,South,174,0.0,0.0,98,0.00,,,0.01,0,WeatherCatV1.11B39,2013-01-13 23:37:00,
2013-01-13 18:42:00,32.9,32.4,29.52,South,174,0.0,0.0,98,0.00,,,0.01,0,WeatherCatV1.11B39,2013-01-13 23:42:00,
2013-01-13 18:47:00,32.9,32.4,29.52,South,174,0.0,0.0,98,0.00,,,0.01,0,WeatherCatV1.11B39,2013-01-13 23:47:00,
2013-01-13 18:52:00,32.9,32.4,29.51,South,174,0.0,0.0,98,0.00,,,0.01,0,WeatherCatV1.11B39,2013-01-13 23:52:00,
2013-01-13 18:57:00,32.9,32.4,29.51,South,174,0.0,0.0,98,0.00,,,0.01,0,WeatherCatV1.11B39,2013-01-13 23:57:00,
2013-01-13 19:02:00,32.9,32.4,29.52,South,174,0.0,0.0,98,0.00,,,0.01,0,WeatherCatV1.11B39,2013-01-14 00:02:00,
2013-01-13 19:07:00,32.9,32.4,29.52,South,174,0.0,0.0,98,0.00,,,0.01,0,WeatherCatV1.11B39,2013-01-14 00:07:00,
2013-01-13 19:12:00,32.9,32.4,29.51,South,174,0.0,0.0,98,0.00,,,0.01,0,WeatherCatV1.11B39,2013-01-14 00:12:00,
2013-01-13 19:17:00,32.9,32.4,29.51,South,174,0.0,0.0,98,0.00,,,0.01,0,WeatherCatV1.11B39,2013-01-14 00:17:00,
2013-01-13 19:22:00,32.9,32.4,29.51,South,174,0.0,0.0,98,0.00,,,0.01,0,WeatherCatV1.11B39,2013-01-14 00:22:00,
2013-01-13 19:27:00,32.9,32.4,29.51,South,174,0.0,0.0,98,0.00,,,0.01,0,WeatherCatV1.11B39,2013-01-14 00:27:00,
2013-01-13 19:32:00,32.8,32.3,29.51,South,174,0.0,0.0,98,0.00,,,0.01,0,WeatherCatV1.11B39,2013-01-14 00:32:00,
2013-01-13 19:37:00,32.7,32.2,29.51,South,174,0.0,0.0,98,0.00,,,0.01,0,WeatherCatV1.11B39,2013-01-14 00:37:00,
2013-01-13 19:42:00,32.7,32.2,29.50,South,174,0.0,0.0,98,0.00,,,0.01,0,WeatherCatV1.11B39,2013-01-14 00:42:00,
2013-01-13 19:47:00,32.7,32.2,29.51,South,174,0.0,0.0,98,0.00,,,0.01,0,WeatherCatV1.11B39,2013-01-14 00:47:00,
2013-01-13 19:52:00,32.7,32.2,29.51,South,174,0.0,0.0,98,0.00,,,0.01,0,WeatherCatV1.11B39,2013-01-14 00:52:00,
2013-01-13 19:57:00,32.6,32.1,29.51,South,174,0.0,0.0,98,0.00,,,0.01,0,WeatherCatV1.11B39,2013-01-14 00:57:00,
2013-01-13 20:02:00,32.6,32.1,29.50,South,174,0.0,0.0,98,0.00,,,0.01,0,WeatherCatV1.11B39,2013-01-14 01:02:00,
2013-01-13 20:07:00,32.6,32.1,29.51,South,174,0.0,0.0,98,0.00,,,0.01,0,WeatherCatV1.11B39,2013-01-14 01:07:00,
2013-01-13 20:12:00,32.6,32.1,29.51,South,174,0.0,0.0,98,0.00,,,0.01,0,WeatherCatV1.11B39,2013-01-14 01:12:00,
2013-01-13 20:17:00,32.6,32.1,29.50,South,174,0.0,0.0,98,0.00,,,0.01,0,WeatherCatV1.11B39,2013-01-14 01:17:00,
2013-01-13 20:22:00,32.6,32.1,29.50,South,174,0.0,0.0,98,0.00,,,0.01,0,WeatherCatV1.11B39,2013-01-14 01:22:00,
2013-01-13 20:27:00,32.6,32.1,29.50,South,174,0.0,0.0,98,0.00,,,0.01,0,WeatherCatV1.11B39,2013-01-14 01:27:00,
2013-01-13 20:32:00,32.6,32.1,29.50,South,174,0.0,0.0,98,0.00,,,0.01,0,WeatherCatV1.11B39,2013-01-14 01:32:00,
2013-01-13 20:37:00,32.6,32.1,29.50,South,174,0.0,0.0,98,0.00,,,0.01,0,WeatherCatV1.11B39,2013-01-14 01:37:00,
2013-01-13 20:42:00,32.6,32.1,29.50,South,174,0.0,0.0,98,0.00,,,0.01,0,WeatherCatV1.11B39,2013-01-14 01:42:00,
2013-01-13 20:47:00,32.6,32.1,29.50,South,174,0.0,0.0,98,0.00,,,0.01,0,WeatherCatV1.11B39,2013-01-14 01:47:00,
2013-01-13 20:52:00,32.7,32.2,29.50,South,174,0.0,0.0,98,0.00,,,0.01,0,WeatherCatV1.11B39,2013-01-14 01:52:00,
2013-01-13 20:57:00,32.6,32.1,29.49,South,174,0.0,0.0,98,0.00,,,0.01,0,WeatherCatV1.11B39,2013-01-14 01:57:00,
2013-01-13 21:02:00,32.6,32.1,29.49,South,174,0.0,0.0,98,0.00,,,0.01,0,WeatherCatV1.11B39,2013-01-14 02:02:00,
2013-01-13 21:07:00,32.6,32.1,29.49,South,174,0.0,0.0,98,0.00,,,0.01,0,WeatherCatV1.11B39,2013-01-14 02:07:00,
2013-01-13 21:12:00,32.6,32.1,29.50,South,174,0.0,0.0,98,0.00,,,0.01,0,WeatherCatV1.11B39,2013-01-14 02:12:00,
2013-01-13 21:17:00,32.6,32.1,29.49,South,174,0.0,0.0,98,0.00,,,0.01,0,WeatherCatV1.11B39,2013-01-14 02:17:00,
2013-01-13 21:22:00,32.5,32.0,29.49,South,174,0.0,0.0,98,0.00,,,0.01,0,WeatherCatV1.11B39,2013-01-14 02:22:00,
2013-01-13 21:27:00,32.5,32.0,29.49,South,174,0.0,0.0,98,0.00,,,0.01,0,WeatherCatV1.11B39,2013-01-14 02:27:00,
2013-01-13 21:32:00,32.5,32.0,29.49,South,174,0.0,0.0,98,0.00,,,0.01,0,WeatherCatV1.11B39,2013-01-14 02:32:00,
2013-01-13 21:37:00,32.5,32.0,29.48,South,174,0.0,0.0,98,0.00,,,0.01,0,WeatherCatV1.11B39,2013-01-14 02:37:00,
2013-01-13 21:42:00,32.4,31.9,29.48,South,174,0.0,0.0,98,0.00,,,0.01,0,WeatherCatV1.11B39,2013-01-14 02:42:00,
2013-01-13 21:47:00,32.4,31.9,29.47,South,174,0.0,0.0,98,0.00,,,0.01,0,WeatherCatV1.11B39,2013-01-14 02:47:00,
2013-01-13 21:52:00,32.4,31.9,29.48,South,174,0.0,0.0,98,0.00,,,0.01,0,WeatherCatV1.11B39,2013-01-14 02:52:00,
2013-01-13 21:57:00,32.3,31.8,29.47,South,174,0.0,0.0,98,0.00,,,0.01,0,WeatherCatV1.11B39,2013-01-14 02:57:00,
2013-01-13 22:02:00,32.3,31.8,29.47,South,174,0.0,0.0,98,0.00,,,0.01,0,WeatherCatV1.11B39,2013-01-14 03:02:00,
2013-01-13 22:07:00,32.3,31.8,29.48,South,174,0.0,0.0,98,0.00,,,0.01,0,WeatherCatV1.11B39,2013-01-14 03:07:00,
2013-01-13 22:12:00,32.3,31.8,29.48,South,174,0.0,0.0,98,0.00,,,0.01,0,WeatherCatV1.11B39,2013-01-14 03:12:00,
2013-01-13 22:17:00,32.3,31.8,29.48,South,174,0.0,0.0,98,0.00,,,0.01,0,WeatherCatV1.11B39,2013-01-14 03:17:00,
2013-01-13 22:22:00,32.4,31.9,29.48,South,174,0.0,0.0,98,0.00,,,0.01,0,WeatherCatV1.11B39,2013-01-14 03:22:00,
2013-01-13 22:27:00,32.4,31.9,29.48,South,174,0.0,0.0,98,0.00,,,0.01,0,WeatherCatV1.11B39,2013-01-14 03:27:00,
2013-01-13 22:32:00,32.4,31.9,29.48,South,174,0.0,0.0,98,0.00,,,0.01,0,WeatherCatV1.11B39,2013-01-14 03:32:00,
2013-01-13 22:37:00,32.4,31.9,29.47,South,174,0.0,0.0,98,0.00,,,0.01,0,WeatherCatV1.11B39,2013-01-14 03:37:00,
2013-01-13 22:42:00,32.3,31.8,29.47,South,174,0.0,0.0,98,0.00,,,0.01,0,WeatherCatV1.11B39,2013-01-14 03:42:00,
2013-01-13 22:47:00,32.3,31.8,29.48,South,174,0.0,0.0,98,0.00,,,0.01,0,WeatherCatV1.11B39,2013-01-14 03:47:00,
2013-01-13 22:52:00,32.3,31.8,29.47,South,174,0.0,0.0,98,0.00,,,0.01,0,WeatherCatV1.11B39,2013-01-14 03:52:00,
2013-01-13 22:57:00,32.3,31.8,29.48,South,174,0.0,0.0,98,0.00,,,0.01,0,WeatherCatV1.11B39,2013-01-14 03:57:00,
2013-01-13 23:02:00,32.2,31.7,29.47,South,174,0.0,0.0,98,0.00,,,0.01,0,WeatherCatV1.11B39,2013-01-14 04:02:00,
2013-01-13 23:07:00,32.2,31.7,29.48,South,174,0.0,0.0,98,0.00,,,0.01,0,WeatherCatV1.11B39,2013-01-14 04:07:00,
2013-01-13 23:12:00,32.2,31.7,29.47,South,174,0.0,0.0,98,0.00,,,0.01,0,WeatherCatV1.11B39,2013-01-14 04:12:00,
2013-01-13 23:17:00,32.2,31.7,29.47,South,174,0.0,0.0,98,0.00,,,0.01,0,WeatherCatV1.11B39,2013-01-14 04:17:00,
2013-01-13 23:22:00,32.2,31.7,29.47,South,174,0.0,0.0,98,0.00,,,0.01,0,WeatherCatV1.11B39,2013-01-14 04:22:00,
2013-01-13 23:27:00,32.2,31.7,29.47,South,174,0.0,0.0,98,0.00,,,0.01,0,WeatherCatV1.11B39,2013-01-14 04:27:00,
2013-01-13 23:32:00,32.1,31.6,29.47,South,174,0.0,0.0,98,0.00,,,0.01,0,WeatherCatV1.11B39,2013-01-14 04:32:00,
2013-01-13 23:37:00,32.2,31.7,29.47,South,174,0.0,0.0,98,0.00,,,0.01,0,WeatherCatV1.11B39,2013-01-14 04:37:00,
2013-01-13 23:42:00,32.3,31.8,29.47,South,174,0.0,0.0,98,0.00,,,0.01,0,WeatherCatV1.11B39,2013-01-14 04:42:00,
2013-01-13 23:47:00,32.3,31.8,29.47,South,174,0.0,0.0,98,0.00,,,0.01,0,WeatherCatV1.11B39,2013-01-14 04:47:00,
2013-01-13 23:52:00,32.3,31.8,29.47,South,174,0.0,0.0,98,0.00,,,0.01,0,WeatherCatV1.11B39,2013-01-14 04:52:00,
2013-01-13 23:57:00,32.3,31.8,29.47,South,174,0.0,0.0,98,0.00,,,0.01,0,WeatherCatV1.11B39,2013-01-14 04:57:00,